{"data":{"norad_id":68736,"epoch":"2026-09-19T09:30:17.748000Z","epoch_age_seconds":136717,"freshness":"FRESH","line1":"1 68736U 26082J   26262.39603875  .00010542  00000+0  32839-3 0  9996","line2":"2 68736  97.2883 124.5215 0001066  94.6753 265.4611 15.33446642 24139","mean_motion":15.33446642,"eccentricity":0.0001066,"inclination_deg":97.2883,"raan_deg":124.5215,"arg_perigee_deg":94.6753,"mean_anomaly_deg":265.4611,"bstar":0.00032839,"rev_number":2413,"period_min":93.906104102969,"perigee_km":464.80875325992,"apogee_km":466.26782483155,"semimajor_km":6843.6752890457,"source":"CELESTRAK","updated_at":"2026-09-20T09:00:43.991813Z"}}